FW9360 Weather Reports


Display with metric or nautical units.
time (UTC)temp
F
wind
direction
speed
MPH
gust
MPH
rain 1hr
in
rain 24hr
in
rain mn
in
humidity
%
barometer
mb
20260505185832 81 0 0.0 0.0 0.00 0.00 0.00 69 1009.0
20260505185322 82 0 0.0 0.0 0.00 0.00 0.00 67 1009.2
20260505184302 82 68 0.0 4.0 0.00 0.00 0.00 67 1009.1
20260505183752 82 0 0.0 4.0 0.00 0.00 0.00 67 1009.0
20260505183241 81 23 0.0 4.0 0.00 0.00 0.00 68 1009.0
20260505182732 80 45 0.0 4.0 0.00 0.00 0.00 69 1009.1
20260505182222 81 23 0.0 2.0 0.00 0.00 0.00 69 1009.1
20260505181711 81 68 0.0 9.0 0.00 0.00 0.00 69 1009.1
20260505181201 80 338 0.0 9.0 0.00 0.00 0.00 68 1009.0
20260505180141 81 23 1.0 7.0 0.00 0.00 0.00 67 1009.1
20260505175631 82 23 0.0 2.0 0.00 0.00 0.00 66 1009.2
20260505174610 82 338 0.0 2.0 0.00 0.00 0.00 67 1009.1
20260505174101 82 0 0.0 2.0 0.00 0.00 0.00 68 1009.3
20260505173550 81 23 0.0 2.0 0.00 0.00 0.00 69 1009.5
20260505173040 82 0 0.0 4.0 0.00 0.00 0.00 66 1009.4
20260505172020 82 293 1.0 7.0 0.00 0.00 0.00 68 1009.4
20260505170450 82 68 0.0 7.0 0.00 0.00 0.00 67 1009.6
20260505165940 82 293 0.0 6.0 0.00 0.00 0.00 67 1009.5
20260505165429 82 135 0.0 9.0 0.00 0.00 0.00 68 1026.5
20260505164920 80 0 2.0 9.0 0.00 0.00 0.00 71 1009.8
20260505164410 80 45 2.0 4.0 0.00 0.00 0.00 72 1009.5
20260505163859 79 23 0.0 4.0 0.00 0.00 0.00 74 1009.7
20260505163349 78 68 0.0 6.0 0.00 0.00 0.00 76 1009.7
20260505162839 77 23 1.0 6.0 0.00 0.00 0.00 79 1010.0
20260505160758 74 45 0.0 8.0 0.00 0.00 0.00 84 1010.3
20260505160248 74 23 0.0 8.0 0.00 0.00 0.00 85 1010.3
20260505153148 72 68 2.0 7.0 0.00 0.00 0.00 89 1011.1
20260505152637 72 90 4.0 6.0 0.00 0.00 0.00 89 1010.8
20260505152127 72 23 1.0 6.0 0.00 0.00 0.00 90 1011.0
20260505151617 72 0 2.0 8.0 0.00 0.00 0.00 90 1011.1
20260505151108 71 23 3.0 8.0 0.00 0.00 0.00 90 1011.1
20260505150557 71 338 1.0 6.0 0.00 0.00 0.00 91 1011.2
20260505140355 68 23 0.0 2.0 0.00 0.00 0.00 97 1011.4
20260505130155 66 45 0.0 0.0 0.00 0.00 0.00 99 1011.3
20260505124624 65 0 0.0 0.0 0.00 0.00 0.00 99 1011.1
20260505124113 65 0 0.0 0.0 0.00 0.00 0.00 99 1011.3
20260505123604 65 0 0.0 0.0 0.00 0.00 0.00 99 1011.2
20260505123054 65 0 0.0 0.0 0.00 0.00 0.00 99 1011.4
20260505122034 64 45 0.0 0.0 0.00 0.00 0.00 99 1010.9
20260505121523 64 23 0.0 0.0 0.00 0.00 0.00 99 1010.9
20260505114257 63 23 0.0 0.0 0.00 0.00 0.00 99 1010.9
20260505113748 63 23 0.0 0.0 0.00 0.00 0.00 99 1010.8
20260505113237 63 23 0.0 0.0 0.00 0.00 0.00 99 1010.8
20260505112728 63 23 0.0 0.0 0.00 0.00 0.00 99 1010.7
20260505112217 63 23 0.0 0.0 0.00 0.00 0.00 99 1010.7
20260505111707 63 23 0.0 0.0 0.00 0.00 0.00 99 1010.5
20260505110648 63 23 0.0 0.0 0.00 0.00 0.00 99 1010.6
20260505110136 63 23 0.0 0.0 0.00 0.00 0.00 99 1010.3
20260505102015 63 23 0.0 0.0 0.00 0.00 0.00 99 1009.6
20260505101506 63 23 0.0 0.0 0.00 0.00 0.00 99 1009.7
20260505100446 63 23 0.0 0.0 0.00 0.00 0.00 99 1009.5
20260505095936 63 23 0.0 2.0 0.00 0.00 0.00 99 1009.5
20260505095425 63 23 0.0 2.0 0.00 0.00 0.00 99 1009.7
20260505094916 63 23 0.0 0.0 0.00 0.00 0.00 99 1009.6
20260505094405 62 23 0.0 0.0 0.00 0.00 0.00 99 1009.6
20260505093855 62 23 0.0 0.0 0.00 0.00 0.00 99 1009.5
20260505093346 63 23 0.0 0.0 0.00 0.00 0.00 99 1009.5
20260505092835 62 23 0.0 0.0 0.00 0.00 0.00 99 1009.5
20260505092325 63 23 0.0 0.0 0.00 0.00 0.00 99 1009.5
20260505091815 63 23 0.0 0.0 0.00 0.00 0.00 99 1009.3
20260505091304 62 23 0.0 0.0 0.00 0.00 0.00 99 1009.4
20260505090754 62 45 0.0 0.0 0.00 0.00 0.00 99 1009.4
20260505090244 62 45 0.0 0.0 0.00 0.00 0.00 99 1009.3
20260505085734 62 23 0.0 0.0 0.00 0.00 0.00 99 1009.1
20260505085223 62 23 0.0 0.0 0.00 0.00 0.00 99 1009.1
20260505084204 62 23 0.0 0.0 0.00 0.00 0.00 99 1009.2
20260505083654 62 23 0.0 0.0 0.00 0.00 0.00 99 1009.1
20260505082634 62 23 0.0 0.0 0.00 0.00 0.00 99 1009.0
20260505082123 62 23 0.0 0.0 0.00 0.00 0.00 99 1009.1
20260505081623 62 0 0.0 0.0 0.00 0.00 0.00 99 1009.0
20260505081103 62 0 0.0 0.0 0.00 0.00 0.00 99 1009.2
20260505080043 62 23 0.0 4.0 0.00 0.00 0.00 99 1009.3
20260505075533 62 0 0.0 0.0 0.00 0.00 0.00 99 1009.2
20260505075022 62 0 0.0 0.0 0.00 0.00 0.00 98 1009.2
20260505074512 61 23 0.0 0.0 0.00 0.00 0.00 98 1009.2
20260505072943 61 23 0.0 0.0 0.00 0.00 0.00 98 1009.3
20260505072434 61 23 0.0 0.0 0.00 0.00 0.00 98 1009.3
20260505071922 61 23 0.0 0.0 0.00 0.00 0.00 98 1009.3
20260505071422 60 23 0.0 0.0 0.00 0.00 0.00 97 1009.4
20260505070902 60 23 0.0 0.0 0.00 0.00 0.00 97 1009.3
20260505065842 60 23 0.0 0.0 0.00 0.00 0.00 96 1009.4
20260505065332 60 23 0.0 0.0 0.00 0.00 0.00 96 1009.3
20260505064821 60 23 0.0 0.0 0.00 0.00 0.00 96 1009.2
20260505063802 60 23 0.0 0.0 0.00 0.00 0.00 97 1009.5
20260505062741 61 23 0.0 0.0 0.00 0.00 0.00 97 1009.7
20260505062231 61 23 0.0 0.0 0.00 0.00 0.00 97 1009.6
20260505061721 61 23 0.0 0.0 0.00 0.00 0.00 97 1009.7
20260505061210 60 23 0.0 0.0 0.00 0.00 0.00 97 1009.9
20260505060700 60 23 0.0 0.0 0.00 0.00 0.00 97 1009.8
20260505060150 60 23 0.0 0.0 0.00 0.00 0.00 97 1010.0
20260505055641 60 23 0.0 0.0 0.00 0.00 0.00 97 1009.7
20260505055130 60 23 0.0 0.0 0.00 0.00 0.00 97 1009.7
20260505054620 60 23 0.0 0.0 0.00 0.00 0.00 96 1009.7
20260505054110 60 45 0.0 0.0 0.00 0.00 0.00 96 1009.7
20260505053600 60 23 0.0 0.0 0.00 0.00 0.00 96 1009.6
20260505053050 60 23 0.0 0.0 0.00 0.00 0.00 96 1009.9
20260505052540 59 0 0.0 0.0 0.00 0.00 0.00 96 1009.9
20260505052029 58 0 0.0 0.0 0.00 0.00 0.00 96 1009.8
20260505051529 58 0 0.0 0.0 0.00 0.00 0.00 97 1010.1
20260505041318 58 0 0.0 0.0 0.00 0.00 0.00 96 1010.0
20260505040808 58 23 0.0 0.0 0.00 0.00 0.00 96 1009.9
20260505040259 58 45 0.0 0.0 0.00 0.00 0.00 96 1010.0
20260505035748 58 45 0.0 0.0 0.00 0.00 0.00 96 1009.8
20260505035238 58 45 0.0 0.0 0.00 0.00 0.00 96 1010.0
20260505034727 58 45 0.0 0.0 0.00 0.00 0.00 96 1009.9
20260505034218 58 45 0.0 0.0 0.00 0.00 0.00 96 1009.9
20260505033707 58 45 0.0 0.0 0.00 0.00 0.00 96 1009.7
20260505033157 58 45 0.0 0.0 0.00 0.00 0.00 95 1009.7
20260505032650 58 45 0.0 0.0 0.00 0.00 0.00 95 1009.7
20260505032136 58 23 0.0 0.0 0.00 0.00 0.00 95 1009.4
20260505031627 58 45 0.0 0.0 0.00 0.00 0.00 95 1009.6
20260505031116 58 45 0.0 0.0 0.00 0.00 0.00 95 1009.7
20260505030607 58 45 0.0 0.0 0.00 0.00 0.00 95 1009.6
20260505025546 58 45 0.0 0.0 0.00 0.00 0.00 95 1009.4
20260505025037 58 45 0.0 0.0 0.00 0.00 0.00 95 1009.5
20260505024526 58 45 0.0 0.0 0.00 0.00 0.00 95 1009.3
20260505024016 57 23 0.0 0.0 0.00 0.00 0.00 95 1009.3
20260505023506 57 23 0.0 0.0 0.00 0.00 0.00 95 1009.4
20260505022956 57 23 0.0 0.0 0.00 0.00 0.00 95 1009.4
20260505022445 57 23 0.0 0.0 0.00 0.00 0.00 95 1009.4
20260505021935 57 23 0.0 7.0 0.00 0.00 0.00 95 1009.3
20260505021425 57 23 0.0 7.0 0.00 0.00 0.00 95 1009.5
20260505020916 57 23 0.0 0.0 0.00 0.00 0.00 95 1009.1
20260505020405 57 23 0.0 0.0 0.00 0.00 0.00 94 1009.4
20260505015856 57 23 0.0 0.0 0.00 0.00 0.00 94 1009.0
20260505015345 57 23 0.0 0.0 0.00 0.00 0.00 93 1009.2
20260505014325 58 23 0.0 6.0 0.00 0.00 0.00 93 1009.2
20260505013815 58 23 0.0 6.0 0.00 0.00 0.00 92 1009.2
20260505013305 58 23 0.0 0.0 0.00 0.00 0.00 92 1009.1
20260505012244 59 45 0.0 0.0 0.00 0.00 0.00 92 1008.9
20260505011735 59 45 0.0 0.0 0.00 0.00 0.00 91 1008.8
20260505010204 59 45 0.0 2.0 0.00 0.00 0.00 90 1008.8
20260505005654 59 45 0.0 2.0 0.00 0.00 0.00 90 1009.0
20260505003614 59 23 0.0 0.0 0.00 0.00 0.00 89 1008.8
20260505002553 60 23 0.0 2.0 0.00 0.00 0.00 88 1008.5
20260505002044 60 23 0.0 2.0 0.00 0.00 0.00 88 1008.6
20260505001533 60 23 0.0 0.0 0.00 0.00 0.00 87 1008.4
20260505001023 60 45 0.0 0.0 0.00 0.00 0.00 86 1008.2
20260505000512 61 68 0.0 0.0 0.00 0.00 0.00 86 1008.2
20260505000003 61 23 0.0 0.0 0.00 0.00 0.00 86 1008.3
20260504235452 61 23 0.0 0.0 0.00 0.00 0.00 86 1008.3
20260504234942 61 45 0.0 0.0 0.00 0.00 0.00 85 1008.2
20260504234432 61 45 0.0 0.0 0.00 0.00 0.00 86 1008.3
20260504233922 61 0 0.0 0.0 0.00 0.00 0.00 85 1008.4
20260504232902 61 23 0.0 0.0 0.00 0.00 0.00 84 1008.6
20260504232352 61 23 0.0 0.0 0.00 0.00 0.00 84 1008.2
20260504231842 61 23 0.0 0.0 0.00 0.00 0.00 84 1008.3
20260504230821 61 23 0.0 0.0 0.00 0.00 0.00 83 1008.3
20260504230311 62 45 0.0 0.0 0.00 0.00 0.00 82 1008.3
20260504225801 63 23 0.0 0.0 0.00 0.00 0.00 80 1008.2
20260504225251 63 45 0.0 0.0 0.00 0.00 0.00 80 1008.0
20260504224741 64 45 0.0 0.0 0.00 0.00 0.00 79 1008.0
20260504224231 64 45 0.0 0.0 0.00 0.00 0.00 79 1008.1
20260504223721 64 45 0.0 0.0 0.00 0.00 0.00 79 1008.0
20260504223211 64 45 0.0 0.0 0.00 0.00 0.00 78 1008.0
20260504221639 66 23 0.0 0.0 0.00 0.00 0.00 76 1007.8
20260504221130 66 45 0.0 2.0 0.00 0.00 0.00 75 1007.6
20260504220621 67 0 0.0 2.0 0.00 0.00 0.00 74 1007.5
20260504220110 67 23 0.0 2.0 0.00 0.00 0.00 74 1007.4
20260504215600 67 23 0.0 2.0 0.00 0.00 0.00 73 1007.5
20260504215050 68 0 0.0 2.0 0.00 0.00 0.00 72 1007.1
20260504214029 68 45 0.0 4.0 0.00 0.00 0.00 72 1007.4
20260504213518 69 0 0.0 4.0 0.00 0.00 0.00 71 1007.0
20260504213009 69 45 0.0 4.0 0.00 0.00 0.00 72 1007.2
20260504211949 70 45 0.0 8.0 0.00 0.00 0.00 70 1007.2
20260504211438 70 45 0.0 9.0 0.00 0.00 0.00 70 1007.2
20260504210419 71 45 0.0 9.0 0.00 0.00 0.00 68 1007.2
20260504205909 71 0 2.0 9.0 0.00 0.00 0.00 68 1006.9
20260504205358 71 45 3.0 8.0 0.00 0.00 0.00 68 1007.2
20260504204848 71 0 1.0 8.0 0.00 0.00 0.00 68 1007.2
20260504204338 71 0 0.0 9.0 0.00 0.00 0.00 67 1007.0
20260504203828 72 23 3.0 9.0 0.00 0.00 0.00 67 1007.1
20260504202808 72 45 1.0 13.0 0.00 0.00 0.00 65 1007.1
20260504202257 73 0 2.0 11.0 0.00 0.00 0.00 64 1007.1
20260504201749 73 23 4.0 11.0 0.00 0.00 0.00 63 1006.9
20260504201238 74 68 0.0 6.0 0.00 0.00 0.00 62 1006.9
20260504200727 74 23 0.0 9.0 0.00 0.00 0.00 62 1006.9
20260504195707 75 0 2.0 9.0 0.00 0.00 0.00 60 1007.0
20260504195157 76 23 2.0 9.0 0.00 0.00 0.00 58 1007.2
20260504194137 78 0 1.0 11.0 0.00 0.00 0.00 55 1007.0
20260504193627 78 45 3.0 11.0 0.00 0.00 0.00 55 1007.1
20260504192607 78 0 0.0 11.0 0.00 0.00 0.00 54 1007.1
20260504192056 78 90 0.0 11.0 0.00 0.00 0.00 53 1007.2
20260504191546 79 23 1.0 11.0 0.00 0.00 0.00 53 1007.0
20260504191036 78 45 1.0 8.0 0.00 0.00 0.00 53 1007.1
20260504190526 79 45 1.0 9.0 0.00 0.00 0.00 53 1007.1
20260504190017 79 23 0.0 13.0 0.00 0.00 0.00 53 1007.5